Flag for U.S.A. Weather past 2 weeks in Springfield, Massachusetts, U.S.A.

Now
75 °F

Sunny.


Feels Like: 77 °F
Forecast: 63 / 84 °F
Wind: 5 mph from Southwest

Location: Barnes Municipal Airport

Current Time: Jul 31, 2015 at 9:59:23 AM

Latest Report: Jul 31, 2015 at 8:53 AM


Visibility: 10 mi

Pressure: 29.83 "Hg

Humidity: 69%

Dew point: 64 °F

Location of SpringfieldLocation

Historic Weather in Springfield — Graph

°F

Springfield temperature yesterday

Maximum temperature yesterday: 87 °F (at 12:53 PM)
Minimum temperature yesterday: 67 °F (at 3:53 AM)
Average temperature yesterday: 76 °F

Past Weeks' High & Low Weather Summary

 TemperatureHumidityPressure
High93 °F (Jul 29, 2:53 PM)97% (Jul 20, 5:53 AM)30.13 "Hg (Jul 20, 5:53 AM)
Low53 °F (Jul 17, 4:53 AM)31% (Jul 22, 4:53 PM)29.56 "Hg (Jul 21, 4:53 PM)
Average73 °F71%29.88 "Hg
* Reported Jul 16 8:53 AM — Jul 31 8:53 AM, Springfield, Weather by CustomWeather, © 2015

Note: Actual official high and low records may vary slightly from our data, if they occured in-between our weather recording intervals... More about our weather records

Advertising

Springfield weather history for previous 24 hours

 ConditionsComfort  
Time TempWeatherWind HumidityBarometerVisibility
8:53 AM
Fri, Jul 31
75 °FSunny.5 mph69%29.83 "Hg10 mi
7:53 AM70 °FFog.3 mph81%29.83 "Hg10 mi
6:53 AM64 °FFog.No wind97%29.83 "Hg10 mi
5:53 AM62 °FFog.No wind96%29.82 "Hg1 mi
5:02 AM63 °FFog.No wind97%29.81 "Hg3 mi
3:58 AM64 °FFog.No wind94%29.81 "Hg1 mi
2:53 AM66 °FFog.No wind96%29.80 "Hg2 mi
2:00 AM68 °FFog.No wind93%29.81 "Hg3 mi
12:53 AM69 °FFog.No wind96%29.81 "Hg0 mi
11:53 PM
Thu, Jul 30
72 °FFog.No wind97%29.81 "Hg0 mi
11:02 PM71 °FFog.No wind96%29.82 "Hg0 mi
9:53 PM73 °FFog.No wind94%29.81 "Hg3 mi
8:55 PM74 °FFog.6 mph94%29.81 "Hg3 mi
7:53 PM75 °FFog.12 mph90%29.78 "Hg5 mi
6:53 PM76 °FOvercast.8 mph91%29.78 "Hg8 mi
5:53 PM76 °FFog.9 mph91%29.78 "Hg4 mi
4:53 PM77 °FLight rain. Partly sunny.8 mph85%29.78 "Hg10 mi
3:53 PM78 °FThundershowers. Cloudy.10 mph84%29.77 "Hg8 mi
2:53 PM86 °FScattered clouds.15 mph63%29.77 "Hg10 mi
1:53 PM86 °FPartly sunny.13 mph65%29.80 "Hg10 mi
12:53 PM87 °FPassing clouds.15 mph63%29.81 "Hg10 mi
11:53 AM83 °FPartly sunny.13 mph72%29.83 "Hg10 mi
11:04 AM83 °FOvercast.15 mph68%29.85 "Hg10 mi
10:53 AM84 °FPartly sunny.10 mph67%29.85 "Hg10 mi
9:53 AM82 °FPartly sunny.9 mph72%29.85 "Hg10 mi
Weather by CustomWeather, © 2015

See weather overviewHow to use our weather pages